When you browse on this site, cookies collect data to enhance your experience and personalize the content and advertising you see.
Visit our Privacy Policy to learn more. By continuing to use the site, you agree to this use of cookies and data.
  • en Belgique
  • Liste des pays
  • À 7 jours
  • Température de l'eau
  • Carte satellitaire
  • Carte météo
  • Widgets météo
  • user-avatar
    Se connecter

    Météo par heure à Batna

    Ce jour, 18 Juillet, Jeudi

    Heure Température Précipitation Vent Pression Humidité
    00:00 +26°C° 0.2 mm 2 m/s 670 mmHg 41%
    01:00 +25°C° 0 mm 2 m/s 670 mmHg 43%
    02:00 +25°C° 0 mm 2 m/s 670 mmHg 44%
    03:00 +24°C° 0 mm 1 m/s 669 mmHg 46%
    04:00 +24°C° 0.1 mm 2 m/s 670 mmHg 46%
    05:00 +25°C° 0.1 mm 3 m/s 670 mmHg 45%
    06:00 +25°C° 0.1 mm 3 m/s 670 mmHg 45%
    07:00 +26°C° 0.2 mm 4 m/s 671 mmHg 43%
    08:00 +27°C° 0.2 mm 4 m/s 672 mmHg 41%
    09:00 +29°C° 0.2 mm 4 m/s 672 mmHg 39%
    10:00 +30°C° 0 mm 5 m/s 672 mmHg 34%
    11:00 +32°C° 0 mm 5 m/s 672 mmHg 30%
    12:00 +33°C° 0 mm 5 m/s 672 mmHg 25%
    13:00 +33°C° 0 mm 5 m/s 672 mmHg 25%
    14:00 +33°C° 0 mm 5 m/s 672 mmHg 24%
    15:00 +33°C° 0 mm 5 m/s 672 mmHg 23%
    16:00 +32°C° 0 mm 6 m/s 672 mmHg 25%
    17:00 +30°C° 0 mm 6 m/s 672 mmHg 26%
    18:00 +29°C° 0 mm 6 m/s 672 mmHg 28%
    19:00 +28°C° 0 mm 5 m/s 672 mmHg 31%
    20:00 +26°C° 0 mm 5 m/s 672 mmHg 34%
    21:00 +25°C° 0 mm 4 m/s 672 mmHg 37%
    22:00 +24°C° 0 mm 3 m/s 672 mmHg 39%
    23:00 +23°C° 0 mm 2 m/s 672 mmHg 41%

    Demain, 19 Juillet, Vendredi

    Heure Température Précipitation Vent Pression Humidité
    00:00 +23°C° 0 mm 2 m/s 672 mmHg 43%
    01:00 +21°C° 0 mm 2 m/s 671 mmHg 43%
    02:00 +21°C° 0 mm 2 m/s 671 mmHg 44%
    03:00 +21°C° 0 mm 1 m/s 671 mmHg 44%
    04:00 +22°C° 0 mm 1 m/s 671 mmHg 41%
    05:00 +23°C° 0 mm 1 m/s 672 mmHg 38%
    06:00 +22°C° 0 mm 0 m/s 672 mmHg 35%
    07:00 +26°C° 0 mm 1 m/s 673 mmHg 32%
    08:00 +28°C° 0 mm 2 m/s 674 mmHg 30%
    09:00 +29°C° 0 mm 2 m/s 674 mmHg 27%
    10:00 +30°C° 0 mm 3 m/s 674 mmHg 25%
    11:00 +33°C° 0 mm 4 m/s 675 mmHg 23%
    12:00 +34°C° 0 mm 4 m/s 675 mmHg 22%
    13:00 +34°C° 0 mm 5 m/s 674 mmHg 21%
    14:00 +34°C° 0 mm 5 m/s 674 mmHg 21%
    15:00 +35°C° 0 mm 5 m/s 674 mmHg 20%
    16:00 +34°C° 0 mm 5 m/s 674 mmHg 22%
    17:00 +34°C° 0 mm 5 m/s 673 mmHg 23%
    18:00 +33°C° 0 mm 4 m/s 673 mmHg 24%
    19:00 +30°C° 0 mm 3 m/s 673 mmHg 28%
    20:00 +29°C° 0 mm 3 m/s 673 mmHg 32%
    21:00 +27°C° 0 mm 2 m/s 672 mmHg 36%
    22:00 +26°C° 0 mm 1 m/s 672 mmHg 38%
    23:00 +26°C° 0 mm 1 m/s 672 mmHg 41%

    Après-demain, 20 Juillet, Samedi

    Heure Température Précipitation Vent Pression Humidité
    00:00 +25°C° 0 mm 1 m/s 672 mmHg 43%
    01:00 +25°C° 0 mm 1 m/s 672 mmHg 43%
    02:00 +25°C° 0 mm 2 m/s 672 mmHg 44%
    03:00 +25°C° 0 mm 2 m/s 672 mmHg 45%
    04:00 +25°C° 0 mm 2 m/s 672 mmHg 43%
    05:00 +26°C° 0 mm 2 m/s 673 mmHg 42%
    06:00 +26°C° 0 mm 2 m/s 673 mmHg 40%
    07:00 +28°C° 0 mm 3 m/s 674 mmHg 37%
    08:00 +30°C° 0 mm 4 m/s 674 mmHg 34%
    09:00 +32°C° 0 mm 5 m/s 675 mmHg 30%
    10:00 +33°C° 0 mm 6 m/s 675 mmHg 28%
    11:00 +34°C° 0 mm 6 m/s 675 mmHg 26%
    12:00 +35°C° 0 mm 7 m/s 675 mmHg 24%
    13:00 +35°C° 0 mm 6 m/s 675 mmHg 24%
    14:00 +35°C° 0 mm 6 m/s 674 mmHg 25%
    15:00 +35°C° 0 mm 6 m/s 674 mmHg 25%
    16:00 +35°C° 0 mm 5 m/s 674 mmHg 25%
    17:00 +34°C° 0 mm 4 m/s 674 mmHg 26%
    18:00 +34°C° 0 mm 3 m/s 674 mmHg 27%
    19:00 +33°C° 0.1 mm 3 m/s 674 mmHg 31%
    20:00 +30°C° 0.1 mm 2 m/s 674 mmHg 35%
    21:00 +28°C° 0.1 mm 1 m/s 674 mmHg 39%
    22:00 +28°C° 0.1 mm 1 m/s 674 mmHg 40%
    23:00 +27°C° 0.1 mm 1 m/s 674 mmHg 41%

    21 Juillet, Dimanche

    Heure Température Précipitation Vent Pression Humidité
    00:00 +27°C° 0.1 mm 1 m/s 674 mmHg 43%
    01:00 +26°C° 0 mm 1 m/s 673 mmHg 43%
    02:00 +26°C° 0 mm 1 m/s 673 mmHg 44%
    03:00 +25°C° 0 mm 1 m/s 673 mmHg 45%
    04:00 +26°C° 0 mm 1 m/s 673 mmHg 43%
    05:00 +27°C° 0 mm 1 m/s 674 mmHg 41%
    06:00 +28°C° 0 mm 1 m/s 674 mmHg 38%
    07:00 +29°C° 0 mm 1 m/s 675 mmHg 35%
    08:00 +31°C° 0 mm 2 m/s 675 mmHg 31%
    09:00 +33°C° 0 mm 3 m/s 676 mmHg 28%
    10:00 +34°C° 0 mm 3 m/s 676 mmHg 24%
    11:00 +35°C° 0 mm 4 m/s 676 mmHg 21%
    12:00 +36°C° 0 mm 5 m/s 676 mmHg 18%
    13:00 +36°C° 0 mm 5 m/s 676 mmHg 16%
    14:00 +36°C° 0 mm 5 m/s 676 mmHg 15%
    15:00 +36°C° 0 mm 5 m/s 675 mmHg 13%
    16:00 +36°C° 0 mm 5 m/s 675 mmHg 15%
    17:00 +35°C° 0 mm 5 m/s 675 mmHg 16%
    18:00 +34°C° 0 mm 5 m/s 675 mmHg 17%
    19:00 +32°C° 0 mm 4 m/s 675 mmHg 27%
    20:00 +29°C° 0 mm 3 m/s 674 mmHg 37%
    21:00 +27°C° 0 mm 2 m/s 674 mmHg 46%
    22:00 +26°C° 0 mm 1 m/s 674 mmHg 49%
    23:00 +26°C° 0 mm 1 m/s 674 mmHg 51%

    22 Juillet, Lundi

    Heure Température Précipitation Vent Pression Humidité
    00:00 +25°C° 0 mm 1 m/s 674 mmHg 53%
    01:00 +24°C° 0 mm 1 m/s 674 mmHg 55%
    02:00 +24°C° 0 mm 1 m/s 673 mmHg 57%
    03:00 +23°C° 0 mm 1 m/s 673 mmHg 59%
    04:00 +24°C° 0 mm 1 m/s 674 mmHg 56%
    05:00 +25°C° 0 mm 1 m/s 674 mmHg 53%
    06:00 +25°C° 0 mm 1 m/s 674 mmHg 49%
    07:00 +27°C° 0 mm 2 m/s 675 mmHg 45%
    08:00 +28°C° 0 mm 2 m/s 676 mmHg 41%
    09:00 +29°C° 0 mm 2 m/s 676 mmHg 37%
    10:00 +30°C° 0 mm 3 m/s 676 mmHg 33%
    11:00 +31°C° 0 mm 3 m/s 676 mmHg 30%
    12:00 +33°C° 0 mm 3 m/s 676 mmHg 27%
    13:00 +34°C° 0 mm 4 m/s 675 mmHg 26%
    14:00 +34°C° 0 mm 4 m/s 675 mmHg 25%
    15:00 +34°C° 0 mm 4 m/s 675 mmHg 24%
    16:00 +33°C° 0 mm 4 m/s 674 mmHg 25%
    17:00 +33°C° 0 mm 4 m/s 674 mmHg 26%
    18:00 +32°C° 0 mm 4 m/s 674 mmHg 27%
    19:00 +30°C° 0 mm 3 m/s 674 mmHg 32%
    20:00 +28°C° 0 mm 2 m/s 674 mmHg 37%
    21:00 +26°C° 0 mm 1 m/s 673 mmHg 42%
    22:00 +26°C° 0 mm 1 m/s 673 mmHg 43%
    23:00 +25°C° 0 mm 2 m/s 673 mmHg 44%

    23 Juillet, Mardi

    Heure Température Précipitation Vent Pression Humidité
    00:00 +25°C° 0 mm 2 m/s 673 mmHg 45%
    01:00 +24°C° 0 mm 2 m/s 673 mmHg 46%
    02:00 +24°C° 0 mm 1 m/s 672 mmHg 48%
    03:00 +23°C° 0 mm 1 m/s 672 mmHg 49%
    04:00 +24°C° 0 mm 1 m/s 672 mmHg 46%
    05:00 +25°C° 0 mm 2 m/s 673 mmHg 43%
    06:00 +25°C° 0 mm 2 m/s 673 mmHg 40%
    07:00 +27°C° 0 mm 2 m/s 673 mmHg 36%
    08:00 +28°C° 0 mm 2 m/s 674 mmHg 33%
    09:00 +30°C° 0 mm 2 m/s 674 mmHg 30%
    10:00 +31°C° 0 mm 2 m/s 674 mmHg 28%
    11:00 +31°C° 0 mm 3 m/s 674 mmHg 26%
    12:00 +33°C° 0 mm 3 m/s 674 mmHg 24%
    13:00 +33°C° 0 mm 3 m/s 674 mmHg 24%
    14:00 +33°C° 0 mm 3 m/s 673 mmHg 24%
    15:00 +33°C° 0 mm 3 m/s 673 mmHg 24%
    16:00 +33°C° 0 mm 4 m/s 672 mmHg 24%
    17:00 +32°C° 0 mm 4 m/s 672 mmHg 25%
    18:00 +32°C° 0 mm 4 m/s 672 mmHg 25%
    19:00 +29°C° 0 mm 3 m/s 672 mmHg 29%
    20:00 +27°C° 0 mm 2 m/s 672 mmHg 32%
    21:00 +26°C° 0 mm 1 m/s 671 mmHg 36%
    22:00 +25°C° 0 mm 1 m/s 671 mmHg 37%
    23:00 +24°C° 0 mm 1 m/s 671 mmHg 38%
    Voir plus